Accueil
METAR-TAF:

METAR-TAF

Aéroports :

Greeley-Weld County Airport

Greeley, Colorado, États-Unis

latitude: 40-26N, longitude: 104-38W, altitude: 1420 m

Observation

Le bulletin a été fait il y a 1 heure et 4 minutes, à 09:56 UTC
Vent 6 kt de ouest
Température 14°C
Humidité 72%
Pression 1012 hPa
Visibilité: 16.1 km
Ciel clair

METAR: KGXY 230956Z 27006KT 10SM CLR 14/09 A2989 RMK AO2 SLP072 T01390094

Heure: 05:00 (11:00 UTC)


TAF: absent

Observations et prévisions météorologiques de plus de 4000 aéroports (messages METAR et TAF).

Les stations disponibles sont représentées par des disques jaunes et rouges sur la carte.

Passer la souris dessus pour voir le nom de la station.

Cliquer dessus pour voir les observations et prévisions météorologiques.

Pour changer de carte: cliquez sur les boutons verts avec une croix noire pour zoomer, sur le bouton vert avec un tiret pour effectuer un zoom arrière, ou sur les flèches vertes pour les cartes adjacentes.


METAR-TAF: